Location: Herm
(49.4830°N, 2.4500°W)
Time: 05:25:06
(UTC+00:00)

Envisat - Pass Details

Date: 11 October 2022
Orbit: 763 x 765 km, 98.2° (Epoch: 09 December)

Event Time Altitude Azimuth Distance (km) Brightness Sun altitude
Rises 06:37:31 0° 7° (N) 3,247 6.3 -8.4°
Reaches altitude 10° 06:40:00 10° 358° (N) 2,316 5.5 -8.0°
Maximum altitude 06:44:32 33° 296° (WNW) 1,272 3.7 -7.3°
Drops below altitude 10° 06:49:01 10° 233° (SW) 2,301 5.0 -6.6°
Sets 06:51:30 0° 224° (SW) 3,223 5.8 -6.2°
